Regional Weather Roundup
Issued by NWS

Home | Current Version | Previous Version | Text Only | Print | Product List | Glossary Off
Versions: 1 2 3 4 5 6 7 8 9 10 11 12 13 14 15 16 17 18 19 20 21 22 23 24 25 26 27 28 29 30 31 32 33 34 35 36 37 38 39 40 41 42 43 44 45 46 47 48 49 50

000
ASUS43 KDTX 281910
RWRMI
MICHIGAN HOURLY REGIONAL WEATHER ROUNDUP
NATIONAL WEATHER SERVICE DETROIT/PONTIAC MI
ISSUED BY NATIONAL WEATHER SERVICE GRAND RAPIDS MI
300 PM EDT SUN MAY 28 2017

NOTE: "FAIR" INDICATES FEW OR NO CLOUDS BELOW 12,000 FEET WITH NO
SIGNIFICANT WEATHER AND/OR OBSTRUCTION TO VISIBILITY.

MIZ047>049-052>055-059>063-066>070-074>076-081>083-282000-
SOUTHEAST LOWER MICHIGAN

CITY           SKY/WX    TMP DP  RH WIND       PRES   REMARKS
ADRIAN         PTSUNNY   76  64  66 SW8       29.69F
ALMA           PTSUNNY   76  55  48 S9        29.70S
ANN ARBOR      MOSUNNY   77  65  66 VRB5      29.69F
BAD AXE        MOSUNNY   74  54  49 S7        29.72F
DETROIT CITY   MOSUNNY   76  64  66 E8        29.71F
DETROIT        PTSUNNY   77  64  64 SE7       29.70F
FLINT          MOSUNNY   78  59  51 SW7       29.69F
GROSSE ILE     MOSUNNY   68  61  78 S8        29.70F
HILLSDALE      LGT RAIN  73  63  68 S5        29.69F
HOWELL         PTSUNNY   76  58  53 S6        29.70F

CITY           SKY/WX    TMP DP  RH WIND       PRES   REMARKS
JACKSON        PTSUNNY   76  62  62 SW9       29.69F
LANSING        PTSUNNY   80  59  48 VRB5      29.69F
MASON          CLOUDY    77  62  59 W6        29.69F
MONROE         PTSUNNY   71  60  69 E10       29.70F
MT. CLEMENS    PTSUNNY   74  64  71 E7        29.71F
PONTIAC        PTSUNNY   75  60  59 VRB3      29.70F
PORT HOPE        N/A     63  55  75 E16       29.71F
PORT HURON     PTSUNNY   73  57  56 SE7       29.71F
TRI CITIES     MOSUNNY   78  55  44 SW5       29.69F
YPSILANTI      MOSUNNY   79  63  57 VRB6      29.70F
$$
MIZ043>046-050>051-056>058-064>065-071>073-077>080-282000-
SOUTHWEST LOWER MICHIGAN

CITY           SKY/WX    TMP DP  RH WIND       PRES   REMARKS
BATTLE CREEK   MOSUNNY   77  60  55 W6        29.69F
BENTON HARBOR  MOSUNNY   71  58  63 N7        29.71F
BIG RAPIDS     CLOUDY    61  57  87 E3        29.70F
COLDWATER      HVY RAIN  71  65  80 CALM      29.70R
HOLLAND        PTSUNNY   73  58  59 CALM      29.70F
GRAND RAPIDS   CLOUDY    74  62  66 NW13      29.69F
KALAMAZOO      MOSUNNY   77  58  51 CALM      29.69F
MARSHALL       MOSUNNY   76  60  56 W3        29.69F
MOUNT PLEASANT PTSUNNY   75  54  49 W5        29.69F
MUSKEGON       CLOUDY    67  57  70 CALM      29.71F
STURGIS        LGT RAIN  66  62  85 CALM      29.69F
$$
MIZ016>042-282000-
NORTHERN LOWER MICHIGAN

CITY           SKY/WX    TMP DP  RH WIND       PRES   REMARKS
ALPENA         CLOUDY    74  56  53 S14G21    29.68F
BEAVER ISLAND  LGT RAIN  56  55  98 E3        29.70F
BELLAIRE       LGT RAIN  57  55  93 E5        29.72F
CADILLAC       CLOUDY    58  57  96 SE8       29.71F
CHARLEVOIX     RAIN      55  55 100 SE3       29.74F
GAYLORD        RAIN      58  54  86 W10       29.73R FOG
HOUGHTON LAKE  LGT RAIN  60  57  89 W14       29.74R
MANISTEE       CLOUDY    59  57  93 E6        29.70F
OSCODA         CLOUDY    68  55  62 SE8       29.70F
PELLSTON       RAIN      57  54  89 W5        29.72F FOG
TRAVERSE CITY  CLOUDY    61  56  83 CALM      29.69F
LUDINGTON      CLOUDY    61  59  94 SE5       29.70S
$$
MIZ007>008-015-282000-
EASTERN UPPER MICHIGAN

CITY           SKY/WX    TMP DP  RH WIND       PRES   REMARKS
KINROSS        RAIN      60  56  86 S7        29.72S
MACKINAC ISLAN RAIN      54  54 100 W5        29.72F
NEWBERRY       RAIN      56  55  97 SE6       29.71R
S. S. MARIE    CLOUDY    60  54  80 E6        29.70F
$$
MIZ004>006-011>014-085-282000-
CENTRAL UPPER MICHIGAN

CITY           SKY/WX    TMP DP  RH WIND       PRES   REMARKS
MANISTIQUE     CLOUDY    54  51  90 E6        29.67F FOG
ESCANABA       CLOUDY    62  58  86 SE10      29.65F
SAWYER-GWINN   PTSUNNY   63  52  67 S5        29.63F
$$
MIZ001>003-009>011-084-282000-
WESTERN UPPER MICHIGAN

CITY           SKY/WX    TMP DP  RH WIND       PRES   REMARKS
IRON MOUNTAIN  MOSUNNY   71  48  43 S9        29.61F
HOUGHTON       MOSUNNY   68  49  50 SE8       29.62F
COPPER HARBOR    N/A     59  52  77 CALM      29.62F
IRONWOOD       CLOUDY    57  52  83 N3        29.65F
$$

ABBREVIATIONS USED IN REMARKS
   TC - TEMPERATURE IN CELSIUS
  WCI - WIND CHILL INDEX
   HX - HEAT INDEX
  VSB - VISIBILITY




USA.gov is the U.S. government's official web portal to all federal, state and local government web resources and services.